(52433) = 1994 PZ15 = 1998 WE34 = 1999 CN138 = 2000 ES172

Discovered at La Silla on 1994-08-10 by E. W. Elst.

Orbit

Orbit type: Main Belt

Note: WebGL enabled browser required.

epoch2023-09-13.0
epoch JD2460200.5
perihelion date2024-03-31.19898
perihelion JD2460400.69898
argument of perihelion (°)113.64689
ascending node (°)237.22603
inclination (°)1.61728
eccentricity0.2062618
perihelion distance (AU)1.8945129
Tisserand w.r.t. Jupiter3.5
ΔV w.r.t. Earth (km/sec)8.6
semimajor axis (AU)2.3868235
mean anomaly (°)306.48996
mean daily motion (°/day)0.26728430
aphelion distance (AU)2.879
period (years)3.69
P-vector [x]0.98703213
P-vector [y]-0.15563798
P-vector [z]-0.03929874
Q-vector [x]0.15875907
Q-vector [y]0.91028936
Q-vector [z]0.38232034
absolute magnitude16.33
phase slope0.15
uncertainty0
referenceMPEC 2023-N24
observations used952
oppositions20
arc length (days)10558
first opposition used1994
last opposition used2023
residual rms (arc-secs)0.75
perturbers coarse indicatorM-v
perturbers precise indicator003Ek
first observation date used1994-08-10.0
last observation date used2023-07-07.0
computer nameMPCLINUX
JD of orbit computation2456731.580797
perihelion JD uncertainty (days)4.8275E-05
argument of perihelion uncertainty (°)1.5300E-04
ascending node uncertainty (°)1.5240E-04
inclination uncertainty (°)5.2598E-06
eccentricity uncertainty 4.0922E-08
perihelion distance uncertainty (AU)9.8372E-08
Minimum Orbit Intersection Distances (in AU)
for orbit epoch: 2460000.5, reference: E2023-N24
Mercury1.51771
Venus1.17194
Earth0.88802
Mars0.51313
Jupiter2.54489
Saturn6.44756
Uranus15.5658
Neptune27.6622

Observations

961 total observations over interval: 1994 08 10.29583 – 2023 07 07.353433
These data are available for download (format description).

Date (UT) J2000 RA J2000 Dec Magn Location Ref
1994 08 10.29583 23 01 46.47 -02 44 03.1 18.4   809 – European Southern Observatory, La Silla MPC 24349
1994 08 10.30764 23 01 46.16 -02 44 05.1   809 – European Southern Observatory, La Silla MPC 24349
1994 08 10.31944 23 01 45.85 -02 44 05.3   809 – European Southern Observatory, La Silla MPC 24349
1994 08 11.29931 23 01 21.51 -02 45 43.1   809 – European Southern Observatory, La Silla MPC 24349
1994 08 11.31111 23 01 21.10 -02 45 44.9   809 – European Southern Observatory, La Silla MPC 24349
1994 08 11.32292 23 01 20.79 -02 45 45.5   809 – European Southern Observatory, La Silla MPC 24349
1994 08 12.31667 23 00 54.41 -02 47 37.8 18.6   809 – European Southern Observatory, La Silla MPC 24506
1994 08 12.32847 23 00 54.01 -02 47 38.6   809 – European Southern Observatory, La Silla MPC 24506
1994 08 12.34028 23 00 53.68 -02 47 40.1   809 – European Southern Observatory, La Silla MPC 24506
1994 08 13.22986 23 00 28.94 -02 49 31.5   809 – European Southern Observatory, La Silla MPC 24506
1994 08 13.24167 23 00 28.56 -02 49 32.6   809 – European Southern Observatory, La Silla MPC 24506
1994 08 13.25347 23 00 28.19 -02 49 33.7   809 – European Southern Observatory, La Silla MPC 24506
1994 09 04.24722 22 45 16.74 -04 17 40.3 18.4   809 – European Southern Observatory, La Silla MPC 24865
1994 09 04.26042 22 45 16.03 -04 17 45.3   809 – European Southern Observatory, La Silla MPC 24865
1994 09 04.27361 22 45 15.35 -04 17 48.6   809 – European Southern Observatory, La Silla MPC 24865
1994 09 05.21250 22 44 31.11 -04 22 43.0 18.4   809 – European Southern Observatory, La Silla MPC 24865
1994 09 05.22569 22 44 30.37 -04 22 47.8   809 – European Southern Observatory, La Silla MPC 24865
1994 09 05.23889 22 44 29.62 -04 22 53.3   809 – European Southern Observatory, La Silla MPC 24865
1994 09 06.17222 22 43 45.62 -04 27 49.6   809 – European Southern Observatory, La Silla MPC 24865
1994 09 06.18542 22 43 44.93 -04 27 54.2   809 – European Southern Observatory, La Silla MPC 24865
1994 09 06.19861 22 43 44.22 -04 27 59.1   809 – European Southern Observatory, La Silla MPC 24865
1996 02 10.25378 09 17 14.95 +13 11 10.2 19.5 V 691 – Steward Observatory, Kitt Peak-Spacewatch MPS 16357
1996 02 10.27516 09 17 13.64 +13 11 16.2   691 – Steward Observatory, Kitt Peak-Spacewatch MPS 16357
1996 02 10.29678 09 17 12.29 +13 11 22.3   691 – Steward Observatory, Kitt Peak-Spacewatch MPS 16357
1998 11 10.38278 03 35 55.46 +19 37 45.7 18.1 R 699 – Lowell Observatory-LONEOS MPS 56785
1998 11 10.41339 03 35 53.48 +19 37 37.9   699 – Lowell Observatory-LONEOS MPS 56785
1998 11 10.43573 03 35 52.00 +19 37 30.5   699 – Lowell Observatory-LONEOS MPS 56785
1998 11 16.44878 03 29 33.63 +19 08 51.0 18.9 V 691 – Steward Observatory, Kitt Peak-Spacewatch MPS 81249
1998 11 16.47079 03 29 32.21 +19 08 44.4 18.9 V 691 – Steward Observatory, Kitt Peak-Spacewatch MPS 81249
1998 11 16.49288 03 29 30.80 +19 08 37.7 19.0 V 691 – Steward Observatory, Kitt Peak-Spacewatch MPS 81249
1998 11 18.24891 03 27 41.52 +19 00 08.0 18.6   704 – Lincoln Laboratory ETS, New Mexico MPS 16423
1998 11 18.29354 03 27 38.58 +18 59 53.6 19.1   704 – Lincoln Laboratory ETS, New Mexico MPS 16423
1998 11 18.33804 03 27 35.73 +18 59 40.8 18.6   704 – Lincoln Laboratory ETS, New Mexico MPS 16423
1998 11 18.38279 03 27 32.86 +18 59 27.9 18.8   704 – Lincoln Laboratory ETS, New Mexico MPS 16423
1998 11 23.35469 03 22 31.42 +18 35 36.3 18.5 V 691 – Steward Observatory, Kitt Peak-Spacewatch MPS 16423
1998 11 23.37793 03 22 30.00 +18 35 29.6 18.5 V 691 – Steward Observatory, Kitt Peak-Spacewatch MPS 16423
1998 11 23.40908 03 22 28.12 +18 35 20.7 18.4 V 691 – Steward Observatory, Kitt Peak-Spacewatch MPS 16423
1998 11 25.28624 03 20 40.20 +18 26 34.4 19.0 R 699 – Lowell Observatory-LONEOS MPS 10818
1998 11 25.31171 03 20 38.73 +18 26 27.8   699 – Lowell Observatory-LONEOS MPS 10818
1998 11 25.33721 03 20 37.13 +18 26 18.3   699 – Lowell Observatory-LONEOS MPS 10818
1998 11 27.35546 03 18 45.16 +18 17 05.7 18.7 V 691 – Steward Observatory, Kitt Peak-Spacewatch MPS 10818
1998 11 27.37744 03 18 43.87 +18 16 59.6 18.8 V 691 – Steward Observatory, Kitt Peak-Spacewatch MPS 10818
1998 11 27.39973 03 18 42.63 +18 16 53.4 18.7 V 691 – Steward Observatory, Kitt Peak-Spacewatch MPS 10819
1999 02 07.11600 03 30 13.48 +18 15 13.8 20.7 V 691 – Steward Observatory, Kitt Peak-Spacewatch MPS 4197
1999 02 07.13769 03 30 14.82 +18 15 18.6 20.6 V 691 – Steward Observatory, Kitt Peak-Spacewatch MPS 4197
1999 02 07.15944 03 30 16.25 +18 15 23.0 20.8 V 691 – Steward Observatory, Kitt Peak-Spacewatch MPS 4197
1999 02 13.11148 03 37 04.75 +18 37 36.7 20.9 V 691 – Steward Observatory, Kitt Peak-Spacewatch MPS 4197
1999 02 13.13363 03 37 06.30 +18 37 42.2 21.1 V 691 – Steward Observatory, Kitt Peak-Spacewatch MPS 4197
1999 02 13.15598 03 37 07.87 +18 37 47.3 20.8 V 691 – Steward Observatory, Kitt Peak-Spacewatch MPS 4197
2000 03 03.26760 10 59 53.52 +03 50 51.6 18.1   704 – Lincoln Laboratory ETS, New Mexico MPS 16357
2000 03 03.27468 10 59 53.10 +03 50 53.5 19.6 V 691 – Steward Observatory, Kitt Peak-Spacewatch MPS 16357
2000 03 03.29404 10 59 51.99 +03 51 01.0 19.0   704 – Lincoln Laboratory ETS, New Mexico MPS 16357
2000 03 03.29588 10 59 51.90 +03 51 00.7 19.9 V 691 – Steward Observatory, Kitt Peak-Spacewatch MPS 16357
2000 03 03.30725 10 59 51.24 +03 51 05.8 19.2   704 – Lincoln Laboratory ETS, New Mexico MPS 16357
2000 03 03.31708 10 59 50.67 +03 51 08.5 20.0 V 691 – Steward Observatory, Kitt Peak-Spacewatch MPS 16357
2000 03 03.32047 10 59 50.48 +03 51 11.1 19.0   704 – Lincoln Laboratory ETS, New Mexico MPS 16357
2000 03 11.24467 10 52 30.75 +04 38 11.4 19.9   704 – Lincoln Laboratory ETS, New Mexico MPC 40576
2000 03 11.25903 10 52 29.82 +04 38 16.3 20.0   704 – Lincoln Laboratory ETS, New Mexico MPC 40577
2000 03 11.27162 10 52 29.25 +04 38 19.6 19.2   704 – Lincoln Laboratory ETS, New Mexico MPC 40577
2002 12 05.36399 07 12 27.91 +20 53 18.7 19.3   704 – Lincoln Laboratory ETS, New Mexico MPS 67395
2002 12 05.39578 07 12 26.45 +20 53 19.0 19.3   704 – Lincoln Laboratory ETS, New Mexico MPS 67395
2002 12 05.42669 07 12 24.93 +20 53 19.0 20.2   704 – Lincoln Laboratory ETS, New Mexico MPS 67395
2002 12 31.29353 06 46 09.57 +21 11 41.7 18.8   704 – Lincoln Laboratory ETS, New Mexico MPS 69441
2002 12 31.30844 06 46 08.47 +21 11 42.4 19.1   704 – Lincoln Laboratory ETS, New Mexico MPS 69441
2002 12 31.32318 06 46 07.47 +21 11 43.8 19.0   704 – Lincoln Laboratory ETS, New Mexico MPS 69441
2002 12 31.35263 06 46 05.32 +21 11 44.6 18.7   704 – Lincoln Laboratory ETS, New Mexico MPS 69441
2003 01 04.29924 06 41 33.88 +21 14 51.9 18.9   704 – Lincoln Laboratory ETS, New Mexico MPS 69441
2003 01 04.31345 06 41 32.95 +21 14 52.7 19.6   704 – Lincoln Laboratory ETS, New Mexico MPS 69441
2003 01 04.32768 06 41 31.87 +21 14 54.1 19.1   704 – Lincoln Laboratory ETS, New Mexico MPS 69441
2003 01 04.35631 06 41 29.84 +21 14 53.8 19.3   704 – Lincoln Laboratory ETS, New Mexico MPS 69441
2003 01 08.24900 06 37 09.55 +21 17 46.9 18.9   704 – Lincoln Laboratory ETS, New Mexico MPS 69441
2003 01 08.26385 06 37 08.55 +21 17 48.4 19.1   704 – Lincoln Laboratory ETS, New Mexico MPS 69441
2003 01 08.27978 06 37 07.42 +21 17 49.3 19.3   704 – Lincoln Laboratory ETS, New Mexico MPS 69441
2003 01 08.30935 06 37 05.48 +21 17 50.8 18.6   704 – Lincoln Laboratory ETS, New Mexico MPS 69441
2004 04 14.16790 12 18 45.55 -03 55 54.1 20.8 V 691 – Steward Observatory, Kitt Peak-Spacewatch MPS 104744
2004 04 14.19749 12 18 44.04 -03 55 43.8 21.1 V 691 – Steward Observatory, Kitt Peak-Spacewatch MPS 104744
2004 04 14.22865 12 18 42.51 -03 55 32.8 21.1 V 691 – Steward Observatory, Kitt Peak-Spacewatch MPS 104744
2005 06 07.41647 21 45 12.70 -11 24 53.9 19.7 V 703 – Catalina Sky Survey MPS 136313
2005 06 07.42418 21 45 13.17 -11 24 50.6 19.7 V 703 – Catalina Sky Survey MPS 136313
2005 06 07.43191 21 45 13.57 -11 24 47.8 20.5 V 703 – Catalina Sky Survey MPS 136313
2005 06 07.43959 21 45 14.07 -11 24 45.9 20.5 V 703 – Catalina Sky Survey MPS 136313
2005 06 23.39844 21 56 24.32 -10 02 40.6 19.2   644 – Palomar Mountain/NEAT MPS 137278
